Location: Lowman
(44.0835°N, 115.6207°W)
Time: 16:03:00
(UTC+00:00)

Envisat - Pass Details

Date: 01 December 2022
Orbit: 763 x 765 km, 98.2° (Epoch: 02 February)

Event Time Altitude Azimuth Distance (km) Brightness Sun altitude
Rises 12:15:59 0° 10° (N) 3,243 6.3 -28.3°
Reaches altitude 10° 12:18:19 10° 8° (N) 2,313 5.5 -27.9°
Enters shadow 12:19:46 19° 5° (N) 1,749 4.8 -27.7°
